Change the Weather History Date:

Saturday, September 1, 2012

  Actual Average (KMGW) Record (KMGW)
Temperature  
Mean Temperature 70 °F 70 °F  
Max Temperature 75 °F 81 °F 97 °F (1953)
Min Temperature 64 °F 60 °F 46 °F (1967)
Degree Days  
Heating Degree Days 0 1  
Month to date heating degree days 1  
Since 1 July heating degree days 12  
Cooling Degree Days 4 6  
Month to date cooling degree days 6  
Year to date cooling degree days 715  
Growing Degree Days 20 (Base 50)    
Moisture  
Dew Point 67 °F    
Average Humidity 94    
Maximum Humidity 100    
Minimum Humidity 73    
Precipitation  
Precipitation 0.00 in 0.11 in 1.38 in (2003)
Month to date precipitation 0.11  
Year to date precipitation 29.58  
Sea Level Pressure  
Sea Level Pressure 30.22 in    
Wind  
Wind Speed 7 mph (West)    
Max Wind Speed 13 mph    
Max Gust Speed 21 mph    
Visibility 8 miles    
Events      
T = Trace of Precipitation, MM = Missing Value Source: NWS Daily Summary

Daily Weather History Graph

Daily Weather History Graph

Search for Another Location

Airport or City:

Trip Planner

Search our weather history database for the weather conditions in past years. The results will help you decide how hot, cold, wet, or windy it might be!

Date:

Astronomy

Sep. 01, 2012 Rise Set
Actual Time 6:46 AM EDT 7:47 PM EDT
Civil Twilight 6:18 AM EDT 8:15 PM EDT
Nautical Twilight 5:45 AM EDT 8:47 PM EDT
Astronomical Twilight 5:11 AM EDT 9:21 PM EDT
Moon 8:04 PM EDT (9/1) 7:51 AM EDT (9/1)
Length of Visible Light 13h 56m
Length of Day
13h 01m
Full, 99% of the Moon is Illuminated
Sep 1
Full
Sep 8
Last Quarter
Sep 15
New
Sep 22
First Quarter
Sep 29
Full

Hourly Weather History & Observations

Time (EDT) Temp. Dew Point Humidity Pressure Visibility Wind Dir Wind Speed Gust Speed Precip Events Conditions
12:30 AM 71.6 °F 62.6 °F 73% 30.20 in 10.0 mi West 6.9 mph - N/A   Clear
12:50 AM 71.6 °F 62.6 °F 73% 30.21 in 10.0 mi West 8.1 mph - N/A   Clear
1:35 AM 71.6 °F 62.6 °F 73% 30.21 in 10.0 mi West 8.1 mph - N/A   Clear
1:55 AM 71.6 °F 62.6 °F 73% 30.20 in 10.0 mi West 8.1 mph - N/A   Clear
2:15 AM 71.6 °F 64.4 °F 78% 30.20 in 10.0 mi West 8.1 mph - N/A   Clear
2:40 AM 71.6 °F 64.4 °F 78% 30.20 in 10.0 mi West 11.5 mph 18.4 mph N/A   Scattered Clouds
3:00 AM 71.6 °F 64.4 °F 78% 30.20 in 10.0 mi West 10.4 mph 16.1 mph N/A   Scattered Clouds
3:20 AM 71.6 °F 64.4 °F 78% 30.20 in 10.0 mi West 9.2 mph 17.3 mph N/A   Scattered Clouds
3:40 AM 69.8 °F 64.4 °F 83% 30.21 in 10.0 mi West 8.1 mph 16.1 mph N/A   Mostly Cloudy
4:05 AM 69.8 °F 64.4 °F 83% 30.21 in 10.0 mi West 10.4 mph 17.3 mph N/A   Mostly Cloudy
4:25 AM 68.0 °F 66.2 °F 94% 30.21 in 10.0 mi West 9.2 mph 16.1 mph N/A   Overcast
4:45 AM 66.2 °F 66.2 °F 100% 30.22 in 3.0 mi WNW 5.8 mph 18.4 mph N/A   Overcast
5:05 AM 66.2 °F 66.2 °F 100% 30.22 in 10.0 mi West 6.9 mph - N/A   Overcast
5:30 AM 68.0 °F 68.0 °F 100% 30.21 in 10.0 mi West 5.8 mph - N/A   Scattered Clouds
5:50 AM 68.0 °F 68.0 °F 100% 30.22 in 10.0 mi West 8.1 mph - N/A   Mostly Cloudy
6:10 AM 68.0 °F 68.0 °F 100% 30.23 in 10.0 mi West 9.2 mph - N/A   Overcast
6:30 AM 68.0 °F 68.0 °F 100% 30.23 in 10.0 mi WNW 8.1 mph - N/A   Mostly Cloudy
6:55 AM 68.0 °F 68.0 °F 100% 30.24 in 7.0 mi West 8.1 mph - N/A   Mostly Cloudy
7:15 AM 68.0 °F 68.0 °F 100% 30.25 in 10.0 mi WNW 6.9 mph - N/A   Overcast
7:35 AM 68.0 °F 68.0 °F 100% 30.25 in 10.0 mi West 6.9 mph - N/A   Overcast
8:00 AM 68.0 °F 68.0 °F 100% 30.25 in 7.0 mi West 5.8 mph - N/A   Overcast
8:20 AM 68.0 °F 68.0 °F 100% 30.25 in 7.0 mi West 4.6 mph - N/A   Mostly Cloudy
8:40 AM 68.0 °F 68.0 °F 100% 30.25 in 7.0 mi West 3.5 mph - N/A   Scattered Clouds
9:00 AM 68.0 °F 68.0 °F 100% 30.25 in 7.0 mi West 3.5 mph - N/A   Clear
9:25 AM 69.8 °F 69.8 °F 100% 30.25 in 7.0 mi West 5.8 mph - N/A   Clear
9:45 AM 69.8 °F 69.8 °F 100% 30.25 in 10.0 mi West 4.6 mph - N/A   Scattered Clouds
10:05 AM 71.6 °F 71.6 °F 100% 30.25 in 10.0 mi WNW 4.6 mph - N/A   Scattered Clouds
10:25 AM 71.6 °F 69.8 °F 94% 30.25 in 10.0 mi WNW 3.5 mph - N/A   Mostly Cloudy
10:50 AM 71.6 °F 69.8 °F 94% 30.25 in 10.0 mi WNW 3.5 mph - N/A   Overcast
11:10 AM 71.6 °F 69.8 °F 94% 30.25 in 10.0 mi West 3.5 mph - N/A   Overcast
11:30 AM 71.6 °F 69.8 °F 94% 30.25 in 10.0 mi West 4.6 mph - N/A   Mostly Cloudy
11:50 AM 71.6 °F 69.8 °F 94% 30.25 in 10.0 mi West 4.6 mph - N/A   Overcast
12:15 PM 71.6 °F 69.8 °F 94% 30.25 in 10.0 mi West 5.8 mph - N/A   Scattered Clouds
12:35 PM 73.4 °F 69.8 °F 88% 30.25 in 10.0 mi West 6.9 mph - N/A   Scattered Clouds
12:55 PM 75.2 °F 68.0 °F 78% 30.24 in 10.0 mi West 6.9 mph - N/A   Scattered Clouds
1:15 PM 75.2 °F 68.0 °F 78% 30.24 in 10.0 mi West 3.5 mph - N/A   Mostly Cloudy
1:40 PM 73.4 °F 68.0 °F 83% 30.24 in 10.0 mi West 4.6 mph - N/A   Overcast
2:00 PM 71.6 °F 68.0 °F 88% 30.22 in 10.0 mi West 3.5 mph - N/A   Overcast
2:20 PM 71.6 °F 69.8 °F 94% 30.23 in 10.0 mi West 6.9 mph - N/A   Mostly Cloudy
2:40 PM 71.6 °F 69.8 °F 94% 30.21 in 7.0 mi WSW 4.6 mph - N/A   Mostly Cloudy
4:05 PM 71.6 °F 71.6 °F 100% 30.19 in 5.0 mi Calm Calm - N/A   Overcast
4:30 PM 71.6 °F 71.6 °F 100% 30.19 in 2.5 mi SW 6.9 mph - N/A   Overcast
4:50 PM 68.0 °F 68.0 °F 100% 30.18 in 5.0 mi SW 6.9 mph - N/A   Overcast
5:10 PM 68.0 °F 68.0 °F 100% 30.18 in 10.0 mi WSW 5.8 mph - N/A   Scattered Clouds
5:30 PM 69.8 °F 69.8 °F 100% 30.17 in 10.0 mi WSW 6.9 mph - N/A   Clear
5:55 PM 69.8 °F 69.8 °F 100% 30.18 in 7.0 mi WSW 5.8 mph - N/A   Clear
6:15 PM 69.8 °F 69.8 °F 100% 30.19 in 10.0 mi Calm Calm - N/A   Clear
6:35 PM 69.8 °F 69.8 °F 100% 30.19 in 10.0 mi Calm Calm - N/A   Scattered Clouds
6:55 PM 69.8 °F 69.8 °F 100% 30.18 in 7.0 mi WSW 5.8 mph - N/A   Scattered Clouds
7:20 PM 69.8 °F 69.8 °F 100% 30.19 in 5.0 mi WSW 5.8 mph - N/A   Scattered Clouds
8:00 PM 68.0 °F 68.0 °F 100% 30.19 in 5.0 mi West 12.7 mph 20.7 mph N/A   Mostly Cloudy
8:20 PM 64.4 °F 64.4 °F 100% 30.20 in 5.0 mi West 9.2 mph - N/A   Overcast
9:05 PM 64.4 °F 64.4 °F 100% 30.19 in 5.0 mi WSW 6.9 mph - N/A   Overcast
9:25 PM 66.2 °F 66.2 °F 100% 30.18 in 10.0 mi WSW 5.8 mph - N/A   Overcast
9:45 PM 66.2 °F 66.2 °F 100% 30.19 in 10.0 mi WNW 3.5 mph - N/A   Overcast
10:10 PM 64.4 °F 64.4 °F 100% 30.20 in 7.0 mi Calm Calm - N/A   Overcast
10:30 PM 64.4 °F 64.4 °F 100% 30.20 in 10.0 mi WNW 3.5 mph - N/A   Overcast
10:50 PM 66.2 °F 66.2 °F 100% 30.20 in 4.0 mi West 3.5 mph - N/A   Overcast
11:10 PM 66.2 °F 66.2 °F 100% 30.20 in 4.0 mi WSW 4.6 mph - N/A   Overcast
11:35 PM 66.2 °F 66.2 °F 100% 30.20 in 5.0 mi West 5.8 mph - N/A   Overcast